EDT,Max TemperatureF,Mean TemperatureF,Min TemperatureF,Max Dew PointF,MeanDew PointF,Min DewpointF,Max Humidity, Mean Humidity, Min Humidity, Max Sea Level PressureIn, Mean Sea Level PressureIn, Min Sea Level PressureIn, Max VisibilityMiles, Mean VisibilityMiles, Min VisibilityMiles, Max Wind SpeedMPH, Mean Wind SpeedMPH, Max Gust SpeedMPH,PrecipitationIn, CloudCover, Events, WindDirDegrees
2014-7-1,88,78,67,72,68,63,87,69,51,29.89,29.83,29.78,10,10,9,20,8,37,0.08,3,Rain-Thunderstorm,219
2014-7-2,80,71,61,67,63,56,93,72,50,30.02,29.93,29.87,10,9,6,15,7,21,0.00,3,,263
2014-7-3,74,65,56,59,56,54,93,73,53,30.18,30.09,30.01,10,10,10,14,4,17,0.00,5,,296
2014-7-4,79,66,53,56,52,45,100,68,35,30.30,30.26,30.19,10,10,8,15,4,20,0.00,1,,27
2014-7-5,80,66,52,62,54,49,93,64,35,30.30,30.23,30.11,10,9,4,13,3,16,0.00,0,,161
2014-7-6,84,73,61,64,60,58,90,69,47,30.11,30.01,29.91,10,10,8,17,8,26,0.00,3,,206
2014-7-7,83,77,70,72,66,59,93,77,61,29.91,29.84,29.79,10,9,2,22,10,33,0.37,4,Rain-Thunderstorm,239
2014-7-8,82,74,66,70,67,63,90,74,58,29.89,29.80,29.71,10,10,6,14,8,22,0.11,5,Rain-Thunderstorm,238
2014-7-9,81,71,61,63,61,60,93,74,54,30.02,29.95,29.89,10,10,10,14,4,19,0.00,2,,286
2014-7-10,82,70,57,60,57,54,93,68,42,30.16,30.10,30.04,10,10,7,12,4,16,0.00,1,,10
2014-7-11,84,70,55,64,57,53,93,65,37,30.22,30.17,30.14,10,10,10,8,2,12,0.00,0,,196
2014-7-12,82,73,63,71,67,61,93,79,64,30.19,30.12,30.01,10,9,5,15,6,20,0.03,2,Rain,206
2014-7-13,88,80,71,74,71,69,93,76,59,30.01,29.95,29.91,10,10,8,15,7,23,0.05,3,Rain-Thunderstorm,260
2014-7-14,84,75,66,70,68,63,93,79,65,29.94,29.91,29.84,10,7,2,18,5,29,1.41,7,Rain-Thunderstorm,248
2014-7-15,71,64,57,65,55,50,93,73,53,29.98,29.93,29.87,10,10,10,15,6,20,0.00,2,,298
2014-7-16,74,64,53,57,53,50,93,70,47,30.04,30.01,29.98,10,10,10,12,3,15,0.00,2,,329
2014-7-17,78,65,51,59,52,49,96,68,39,30.13,30.09,30.05,10,7,2,9,2,17,0.00,1,,8
2014-7-18,79,67,54,57,54,51,93,68,43,30.17,30.13,30.09,10,10,8,16,5,22,0.00,1,,101
2014-7-19,76,65,53,62,55,51,93,75,57,30.10,30.07,30.02,10,4,0,12,3,14,0.00,2,Fog,40
2014-7-20,83,69,55,64,58,54,93,72,51,30.07,30.03,30.01,10,5,0,8,1,10,0.00,2,Fog,5
2014-7-21,86,72,58,68,61,56,100,72,44,30.12,30.08,30.04,10,7,0,8,1,10,0.00,1,Fog,240
2014-7-22,88,74,60,71,64,59,100,76,51,30.12,30.08,30.01,10,4,0,13,3,16,0.00,0,Fog,238
2014-7-23,78,70,62,70,68,60,90,79,68,30.10,30.02,29.92,10,8,0,26,7,33,1.66,6,Fog-Rain-Thunderstorm,263
2014-7-24,78,67,56,58,56,52,93,68,43,30.09,30.06,30.01,10,10,10,15,7,19,0.00,2,,15
2014-7-25,76,64,51,64,56,50,96,73,49,30.12,30.05,29.94,10,9,0,14,3,19,0.00,1,Fog,171
2014-7-26,86,74,61,75,69,58,93,80,66,30.00,29.89,29.81,10,10,5,17,7,21,0.01,5,Rain-Thunderstorm,227
2014-7-27,85,77,68,76,69,57,93,75,57,29.90,29.82,29.74,10,7,0,24,8,36,0.03,6,Fog-Rain-Thunderstorm,231
2014-7-28,75,64,53,59,56,47,90,71,52,30.06,29.97,29.86,10,10,10,20,7,27,0.00,4,,321
2014-7-29,76,64,52,61,54,48,93,73,53,30.09,30.07,30.04,10,10,10,9,2,14,0.00,3,,283
2014-7-30,78,68,57,64,58,54,93,75,56,30.08,30.06,30.04,10,9,2,12,3,17,T,2,,272
2014-7-31,81,69,57,65,60,56,97,71,45,30.10,30.08,30.06,10,8,0,9,2,12,0.00,0,Fog,280